| time (UTC) | temp F | wind direction | speed MPH | gust MPH | rain 1hr in | rain 24hr in | rain mn in | humidity % | barometer mb |
| 20260503230042 | 60 | 161 | 2.0 | 6.0 | 0.00 | 0.00 | 0.00 | 40 | 1041.8 |
| 20260503225532 | 61 | 232 | 2.0 | 6.0 | 0.00 | 0.00 | 0.00 | 39 | 1041.8 |
| 20260503225030 | 61 | 262 | 2.0 | 6.0 | 0.00 | 0.00 | 0.00 | 37 | 1041.6 |
| 20260503224744 | 62 | 240 | 1.0 | 6.0 | 0.00 | 0.00 | 0.00 | 37 | 1041.6 |
| 20260503224237 | 62 | 316 | 1.0 | 5.0 | 0.00 | 0.00 | 0.00 | 38 | 1041.6 |
| 20260503223555 | 62 | 116 | 2.0 | 5.0 | 0.00 | 0.00 | 0.00 | 37 | 1041.7 |
| 20260503222501 | 62 | 292 | 2.0 | 7.0 | 0.00 | 0.00 | 0.00 | 36 | 1041.7 |
| 20260503221954 | 62 | 270 | 3.0 | 11.0 | 0.00 | 0.00 | 0.00 | 37 | 1041.8 |
| 20260503221711 | 62 | 217 | 4.0 | 11.0 | 0.00 | 0.00 | 0.00 | 37 | 1041.8 |
| 20260503220942 | 62 | 274 | 3.0 | 9.0 | 0.00 | 0.00 | 0.00 | 36 | 1041.8 |
| 20260503220436 | 62 | 205 | 3.0 | 10.0 | 0.00 | 0.00 | 0.00 | 38 | 1041.9 |
| 20260503215931 | 62 | 279 | 3.0 | 10.0 | 0.00 | 0.00 | 0.00 | 37 | 1041.9 |
| 20260503215421 | 62 | 290 | 4.0 | 11.0 | 0.00 | 0.00 | 0.00 | 37 | 1041.9 |
| 20260503214918 | 62 | 251 | 3.0 | 11.0 | 0.00 | 0.00 | 0.00 | 37 | 1041.9 |
| 20260503214412 | 62 | 335 | 3.0 | 7.0 | 0.00 | 0.00 | 0.00 | 36 | 1041.9 |
| 20260503214132 | 62 | 267 | 3.0 | 8.0 | 0.00 | 0.00 | 0.00 | 36 | 1041.9 |
| 20260503213400 | 62 | 234 | 4.0 | 12.0 | 0.00 | 0.00 | 0.00 | 38 | 1041.8 |
| 20260503212855 | 62 | 260 | 4.0 | 12.0 | 0.00 | 0.00 | 0.00 | 36 | 1041.8 |
| 20260503212348 | 62 | 197 | 3.0 | 13.0 | 0.00 | 0.00 | 0.00 | 36 | 1041.8 |
| 20260503211842 | 62 | 238 | 4.0 | 12.0 | 0.00 | 0.00 | 0.00 | 38 | 1041.8 |
| 20260503211341 | 62 | 307 | 4.0 | 13.0 | 0.00 | 0.00 | 0.00 | 37 | 1041.8 |
| 20260503210841 | 62 | 236 | 4.0 | 13.0 | 0.00 | 0.00 | 0.00 | 37 | 1041.8 |
| 20260503210341 | 62 | 245 | 4.0 | 13.0 | 0.00 | 0.00 | 0.00 | 38 | 1041.8 |
| 20260503205841 | 62 | 122 | 4.0 | 12.0 | 0.00 | 0.00 | 0.00 | 39 | 1041.8 |
| 20260503205341 | 62 | 205 | 3.0 | 9.0 | 0.00 | 0.00 | 0.00 | 37 | 1041.8 |
| 20260503204840 | 62 | 267 | 4.0 | 13.0 | 0.00 | 0.00 | 0.00 | 38 | 1041.8 |
| 20260503204344 | 62 | 84 | 4.0 | 13.0 | 0.00 | 0.00 | 0.00 | 38 | 1041.8 |
| 20260503203844 | 62 | 239 | 3.0 | 10.0 | 0.00 | 0.00 | 0.00 | 37 | 1041.8 |
| 20260503203338 | 62 | 224 | 3.0 | 10.0 | 0.00 | 0.00 | 0.00 | 41 | 1042.0 |
| 20260503203046 | 62 | 223 | 3.0 | 6.0 | 0.00 | 0.00 | 0.00 | 38 | 1042.0 |
| 20260503202314 | 62 | 71 | 3.0 | 11.0 | 0.00 | 0.00 | 0.00 | 38 | 1042.0 |
| 20260503201807 | 62 | 166 | 2.0 | 11.0 | 0.00 | 0.00 | 0.00 | 38 | 1042.1 |
| 20260503201254 | 62 | 261 | 3.0 | 8.0 | 0.00 | 0.00 | 0.00 | 38 | 1042.1 |
| 20260503200753 | 62 | 39 | 4.0 | 11.0 | 0.00 | 0.00 | 0.00 | 39 | 1042.1 |
| 20260503200247 | 62 | 65 | 3.0 | 11.0 | 0.00 | 0.00 | 0.00 | 38 | 1042.3 |
| 20260503195742 | 62 | 218 | 2.0 | 9.0 | 0.00 | 0.00 | 0.00 | 40 | 1042.3 |
| 20260503195236 | 61 | 108 | 2.0 | 9.0 | 0.00 | 0.00 | 0.00 | 39 | 1042.3 |
| 20260503194726 | 61 | 49 | 3.0 | 8.0 | 0.00 | 0.00 | 0.00 | 38 | 1042.7 |
| 20260503194224 | 62 | 271 | 4.0 | 10.0 | 0.00 | 0.00 | 0.00 | 39 | 1042.7 |
| 20260503193717 | 62 | 348 | 3.0 | 10.0 | 0.00 | 0.00 | 0.00 | 38 | 1042.7 |
| 20260503193211 | 61 | 238 | 3.0 | 9.0 | 0.00 | 0.00 | 0.00 | 39 | 1042.8 |
| 20260503192705 | 61 | 224 | 4.0 | 13.0 | 0.00 | 0.00 | 0.00 | 38 | 1042.8 |
| 20260503192159 | 61 | 248 | 4.0 | 13.0 | 0.00 | 0.00 | 0.00 | 38 | 1042.8 |
| 20260503191654 | 61 | 236 | 3.0 | 13.0 | 0.00 | 0.00 | 0.00 | 39 | 1042.9 |
| 20260503191142 | 60 | 79 | 3.0 | 13.0 | 0.00 | 0.00 | 0.00 | 38 | 1042.9 |
| 20260503190641 | 60 | 192 | 2.0 | 9.0 | 0.00 | 0.00 | 0.00 | 37 | 1042.9 |
| 20260503190135 | 60 | 81 | 4.0 | 10.0 | 0.00 | 0.00 | 0.00 | 36 | 1043.0 |
| 20260503185629 | 60 | 281 | 4.0 | 10.0 | 0.00 | 0.00 | 0.00 | 38 | 1043.0 |
| 20260503185125 | 60 | 298 | 4.0 | 13.0 | 0.00 | 0.00 | 0.00 | 42 | 1043.3 |
| 20260503184618 | 60 | 304 | 5.0 | 13.0 | 0.00 | 0.00 | 0.00 | 40 | 1043.3 |
| 20260503184328 | 60 | 278 | 4.0 | 12.0 | 0.00 | 0.00 | 0.00 | 42 | 1043.3 |
| 20260503183605 | 60 | 247 | 3.0 | 13.0 | 0.00 | 0.00 | 0.00 | 38 | 1043.4 |
| 20260503183059 | 59 | 221 | 4.0 | 13.0 | 0.00 | 0.00 | 0.00 | 40 | 1043.4 |
| 20260503182549 | 59 | 229 | 4.0 | 10.0 | 0.00 | 0.00 | 0.00 | 40 | 1043.4 |
| 20260503182311 | 59 | 126 | 4.0 | 10.0 | 0.00 | 0.00 | 0.00 | 42 | 1043.5 |
| 20260503181541 | 58 | 250 | 3.0 | 9.0 | 0.00 | 0.00 | 0.00 | 43 | 1043.5 |
| 20260503181035 | 58 | 232 | 3.0 | 8.0 | 0.00 | 0.00 | 0.00 | 42 | 1043.5 |
| 20260503180530 | 58 | 206 | 4.0 | 13.0 | 0.00 | 0.00 | 0.00 | 42 | 1043.5 |
| 20260503180020 | 58 | 281 | 4.0 | 13.0 | 0.00 | 0.00 | 0.00 | 43 | 1043.5 |
| 20260503175517 | 58 | 290 | 3.0 | 11.0 | 0.00 | 0.00 | 0.00 | 43 | 1043.5 |
| 20260503175012 | 58 | 247 | 4.0 | 12.0 | 0.00 | 0.00 | 0.00 | 42 | 1043.9 |
| 20260503174506 | 58 | 219 | 4.0 | 13.0 | 0.00 | 0.00 | 0.00 | 45 | 1043.9 |
| 20260503174000 | 58 | 223 | 4.0 | 13.0 | 0.00 | 0.00 | 0.00 | 45 | 1043.9 |
| 20260503173453 | 58 | 225 | 3.0 | 8.0 | 0.00 | 0.00 | 0.00 | 45 | 1043.8 |
| 20260503172948 | 57 | 296 | 3.0 | 9.0 | 0.00 | 0.00 | 0.00 | 43 | 1043.8 |
| 20260503172653 | 57 | 211 | 4.0 | 9.0 | 0.00 | 0.00 | 0.00 | 45 | 1043.8 |
| 20260503171936 | 57 | 252 | 4.0 | 10.0 | 0.00 | 0.00 | 0.00 | 42 | 1043.9 |
| 20260503171430 | 56 | 227 | 4.0 | 15.0 | 0.00 | 0.00 | 0.00 | 45 | 1043.9 |
| 20260503170924 | 57 | 260 | 3.0 | 8.0 | 0.00 | 0.00 | 0.00 | 45 | 1043.9 |
| 20260503170418 | 57 | 149 | 3.0 | 12.0 | 0.00 | 0.00 | 0.00 | 46 | 1044.4 |
| 20260503170130 | 56 | 89 | 4.0 | 12.0 | 0.00 | 0.00 | 0.00 | 44 | 1044.4 |
| 20260503150730 | 53 | 211 | 3.0 | 8.0 | 0.00 | 0.00 | 0.00 | 53 | 1045.2 |
| 20260503150227 | 52 | 267 | 3.0 | 11.0 | 0.00 | 0.00 | 0.00 | 54 | 1045.1 |
| 20260503140140 | 49 | 228 | 2.0 | 11.0 | 0.00 | 0.00 | 0.00 | 60 | 1045.4 |
| 20260503131039 | 47 | 74 | 3.0 | 9.0 | 0.00 | 0.00 | 0.00 | 65 | 1045.5 |
| 20260503130624 | 47 | 109 | 4.0 | 11.0 | 0.00 | 0.00 | 0.00 | 65 | 1045.5 |
| 20260503110810 | 30 | 306 | 0.0 | 0.0 | 0.00 | 0.00 | 0.00 | 96 | 1044.6 |
| 20260503110309 | 30 | 306 | 0.0 | 0.0 | 0.00 | 0.00 | 0.00 | 96 | 1044.4 |
| 20260503100158 | 31 | 306 | 0.0 | 0.0 | 0.00 | 0.00 | 0.00 | 95 | 1043.6 |
| 20260503081546 | 35 | 306 | 0.0 | 0.0 | 0.00 | 0.00 | 0.00 | 91 | 1043.1 |
| 20260503081043 | 35 | 306 | 0.0 | 0.0 | 0.00 | 0.00 | 0.00 | 91 | 1043.1 |
| 20260503080801 | 35 | 306 | 0.0 | 0.0 | 0.00 | 0.00 | 0.00 | 91 | 1042.9 |
| 20260503072749 | 34 | 306 | 0.0 | 0.0 | 0.00 | 0.00 | 0.00 | 93 | 1042.8 |
| 20260503072020 | 33 | 306 | 0.0 | 0.0 | 0.00 | 0.00 | 0.00 | 93 | 1042.8 |
| 20260503071521 | 33 | 306 | 0.0 | 0.0 | 0.00 | 0.00 | 0.00 | 93 | 1042.8 |
| 20260503071021 | 33 | 306 | 0.0 | 0.0 | 0.00 | 0.00 | 0.00 | 93 | 1042.8 |
| 20260503070521 | 33 | 306 | 0.0 | 0.0 | 0.00 | 0.00 | 0.00 | 93 | 1042.5 |
| 20260503054938 | 35 | 306 | 0.0 | 0.0 | 0.00 | 0.00 | 0.00 | 86 | 1042.7 |
| 20260503054427 | 35 | 306 | 0.0 | 0.0 | 0.00 | 0.00 | 0.00 | 85 | 1042.7 |
| 20260503053922 | 36 | 306 | 0.0 | 0.0 | 0.00 | 0.00 | 0.00 | 85 | 1042.7 |
| 20260503053416 | 37 | 306 | 0.0 | 0.0 | 0.00 | 0.00 | 0.00 | 85 | 1042.7 |
| 20260503052910 | 37 | 306 | 0.0 | 0.0 | 0.00 | 0.00 | 0.00 | 84 | 1042.7 |
| 20260503052403 | 38 | 306 | 0.0 | 0.0 | 0.00 | 0.00 | 0.00 | 84 | 1042.7 |
| 20260503051850 | 38 | 306 | 0.0 | 0.0 | 0.00 | 0.00 | 0.00 | 83 | 1042.8 |
| 20260503051352 | 38 | 306 | 0.0 | 0.0 | 0.00 | 0.00 | 0.00 | 83 | 1042.8 |
| 20260503050846 | 38 | 306 | 0.0 | 0.0 | 0.00 | 0.00 | 0.00 | 82 | 1042.8 |
| 20260503050339 | 38 | 306 | 0.0 | 0.0 | 0.00 | 0.00 | 0.00 | 82 | 1042.8 |
| 20260503045547 | 38 | 222 | 0.0 | 0.0 | 0.00 | 0.00 | 0.00 | 82 | 1042.8 |
| 20260503044822 | 38 | 222 | 0.0 | 0.0 | 0.00 | 0.00 | 0.00 | 81 | 1042.8 |
| 20260503044311 | 39 | 222 | 0.0 | 0.0 | 0.00 | 0.00 | 0.00 | 81 | 1042.8 |
| 20260503043810 | 39 | 222 | 0.0 | 0.0 | 0.00 | 0.00 | 0.00 | 81 | 1042.8 |
| 20260503043522 | 39 | 222 | 0.0 | 0.0 | 0.00 | 0.00 | 0.00 | 79 | 1042.8 |
| 20260503042758 | 39 | 222 | 0.0 | 0.0 | 0.00 | 0.00 | 0.00 | 78 | 1042.8 |
| 20260503042252 | 40 | 222 | 0.0 | 0.0 | 0.00 | 0.00 | 0.00 | 78 | 1042.8 |
| 20260503041746 | 40 | 222 | 0.0 | 0.0 | 0.00 | 0.00 | 0.00 | 77 | 1042.7 |
| 20260503041240 | 41 | 222 | 0.0 | 3.0 | 0.00 | 0.00 | 0.00 | 77 | 1042.7 |
| 20260503040726 | 41 | 213 | 0.0 | 3.0 | 0.00 | 0.00 | 0.00 | 75 | 1042.7 |
| 20260503040452 | 42 | 232 | 0.0 | 1.0 | 0.00 | 0.00 | 0.00 | 74 | 1042.6 |
| 20260503035941 | 42 | 233 | 0.0 | 1.0 | 0.00 | 0.00 | 0.00 | 73 | 1042.6 |
| 20260503035215 | 42 | 246 | 0.0 | 3.0 | 0.00 | 0.00 | 0.00 | 72 | 1042.6 |
| 20260503034709 | 43 | 275 | 0.0 | 3.0 | 0.00 | 0.00 | 0.00 | 72 | 1042.4 |
| 20260503034203 | 43 | 248 | 0.0 | 3.0 | 0.00 | 0.00 | 0.00 | 71 | 1042.4 |
| 20260503033657 | 43 | 247 | 1.0 | 3.0 | 0.00 | 0.00 | 0.00 | 70 | 1042.4 |
| 20260503033409 | 43 | 74 | 1.0 | 8.0 | 0.00 | 0.00 | 0.00 | 70 | 1042.3 |
| 20260503033123 | 44 | 246 | 1.0 | 8.0 | 0.00 | 0.00 | 0.00 | 70 | 1042.3 |
| 20260503032140 | 44 | 34 | 1.0 | 4.0 | 0.00 | 0.00 | 0.00 | 69 | 1042.3 |
| 20260503031633 | 44 | 56 | 1.0 | 5.0 | 0.00 | 0.00 | 0.00 | 70 | 1042.4 |
| 20260503031348 | 44 | 325 | 1.0 | 5.0 | 0.00 | 0.00 | 0.00 | 70 | 1042.4 |
| 20260503030622 | 44 | 278 | 0.0 | 4.0 | 0.00 | 0.00 | 0.00 | 70 | 1042.5 |
| 20260503030115 | 44 | 198 | 1.0 | 7.0 | 0.00 | 0.00 | 0.00 | 71 | 1042.5 |
| 20260503025605 | 44 | 58 | 1.0 | 7.0 | 0.00 | 0.00 | 0.00 | 71 | 1042.5 |
| 20260503025104 | 44 | 207 | 0.0 | 4.0 | 0.00 | 0.00 | 0.00 | 72 | 1042.8 |
| 20260503024558 | 44 | 152 | 0.0 | 1.0 | 0.00 | 0.00 | 0.00 | 71 | 1042.8 |
| 20260503024052 | 44 | 152 | 0.0 | 3.0 | 0.00 | 0.00 | 0.00 | 69 | 1042.8 |
| 20260503023546 | 45 | 236 | 0.0 | 5.0 | 0.00 | 0.00 | 0.00 | 68 | 1042.7 |
| 20260503023040 | 45 | 267 | 0.0 | 5.0 | 0.00 | 0.00 | 0.00 | 68 | 1042.7 |
| 20260503022534 | 45 | 178 | 1.0 | 7.0 | 0.00 | 0.00 | 0.00 | 67 | 1042.7 |
| 20260503022023 | 46 | 173 | 1.0 | 7.0 | 0.00 | 0.00 | 0.00 | 66 | 1042.7 |
| 20260503021521 | 46 | 88 | 1.0 | 3.0 | 0.00 | 0.00 | 0.00 | 66 | 1042.7 |
| 20260503021015 | 46 | 240 | 1.0 | 4.0 | 0.00 | 0.00 | 0.00 | 66 | 1042.7 |
| 20260503020510 | 46 | 253 | 2.0 | 9.0 | 0.00 | 0.00 | 0.00 | 65 | 1042.3 |
| 20260503020004 | 46 | 227 | 1.0 | 9.0 | 0.00 | 0.00 | 0.00 | 66 | 1042.3 |
| 20260503015458 | 46 | 348 | 1.0 | 4.0 | 0.00 | 0.00 | 0.00 | 66 | 1042.3 |
| 20260503014952 | 47 | 239 | 1.0 | 6.0 | 0.00 | 0.00 | 0.00 | 66 | 1042.2 |
| 20260503014442 | 47 | 103 | 1.0 | 6.0 | 0.00 | 0.00 | 0.00 | 66 | 1042.2 |
| 20260503014205 | 47 | 78 | 1.0 | 5.0 | 0.00 | 0.00 | 0.00 | 65 | 1042.2 |
| 20260503013434 | 47 | 13 | 1.0 | 5.0 | 0.00 | 0.00 | 0.00 | 65 | 1041.9 |
| 20260503012927 | 47 | 287 | 1.0 | 5.0 | 0.00 | 0.00 | 0.00 | 64 | 1041.9 |
| 20260503012903 | 48 | 151 | 1.0 | 6.0 | 0.00 | 0.00 | 0.00 | 64 | 1041.9 |
| 20260503011915 | 48 | 244 | 1.0 | 6.0 | 0.00 | 0.00 | 0.00 | 63 | 1041.7 |
| 20260503011631 | 48 | 40 | 1.0 | 4.0 | 0.00 | 0.00 | 0.00 | 63 | 1041.7 |
| 20260503010859 | 48 | 42 | 1.0 | 4.0 | 0.00 | 0.00 | 0.00 | 62 | 1041.7 |
| 20260503010357 | 48 | 81 | 0.0 | 4.0 | 0.00 | 0.00 | 0.00 | 63 | 1041.5 |
| 20260503005852 | 49 | 342 | 1.0 | 4.0 | 0.00 | 0.00 | 0.00 | 62 | 1041.5 |
| 20260503005347 | 49 | 101 | 1.0 | 5.0 | 0.00 | 0.00 | 0.00 | 61 | 1041.5 |
| 20260503004839 | 49 | 52 | 1.0 | 6.0 | 0.00 | 0.00 | 0.00 | 61 | 1041.3 |
| 20260503004334 | 49 | 248 | 1.0 | 6.0 | 0.00 | 0.00 | 0.00 | 61 | 1041.3 |
| 20260503004051 | 49 | 271 | 0.0 | 3.0 | 0.00 | 0.00 | 0.00 | 61 | 1041.3 |
| 20260503003315 | 50 | 134 | 1.0 | 3.0 | 0.00 | 0.00 | 0.00 | 59 | 1041.2 |
| 20260503002816 | 50 | 11 | 1.0 | 4.0 | 0.00 | 0.00 | 0.00 | 59 | 1041.2 |
| 20260503002310 | 50 | 227 | 1.0 | 4.0 | 0.00 | 0.00 | 0.00 | 59 | 1041.2 |
| 20260503001803 | 50 | 304 | 1.0 | 4.0 | 0.00 | 0.00 | 0.00 | 60 | 1041.0 |
| 20260503001258 | 50 | 134 | 0.0 | 2.0 | 0.00 | 0.00 | 0.00 | 61 | 1041.0 |
| 20260503000751 | 50 | 112 | 0.0 | 2.0 | 0.00 | 0.00 | 0.00 | 59 | 1041.0 |
| 20260503000247 | 51 | 250 | 0.0 | 6.0 | 0.00 | 0.00 | 0.00 | 58 | 1040.9 |
| 20260502235735 | 51 | 103 | 1.0 | 6.0 | 0.00 | 0.00 | 0.00 | 60 | 1040.9 |
| 20260502235233 | 51 | 250 | 1.0 | 3.0 | 0.00 | 0.00 | 0.00 | 59 | 1040.9 |
| 20260502234727 | 51 | 71 | 1.0 | 4.0 | 0.00 | 0.00 | 0.00 | 56 | 1040.7 |
| 20260502234221 | 51 | 263 | 0.0 | 4.0 | 0.00 | 0.00 | 0.00 | 56 | 1040.7 |
| 20260502233716 | 52 | 239 | 1.0 | 3.0 | 0.00 | 0.00 | 0.00 | 56 | 1040.7 |
| 20260502233433 | 52 | 277 | 1.0 | 3.0 | 0.00 | 0.00 | 0.00 | 57 | 1040.6 |
| 20260502232703 | 52 | 340 | 0.0 | 3.0 | 0.00 | 0.00 | 0.00 | 55 | 1040.6 |
| 20260502232153 | 52 | 144 | 1.0 | 4.0 | 0.00 | 0.00 | 0.00 | 56 | 1040.6 |
| 20260502231651 | 53 | 292 | 1.0 | 8.0 | 0.00 | 0.00 | 0.00 | 54 | 1040.4 |
| 20260502231410 | 53 | 265 | 1.0 | 8.0 | 0.00 | 0.00 | 0.00 | 54 | 1040.4 |
| 20260502230640 | 53 | 279 | 1.0 | 4.0 | 0.00 | 0.00 | 0.00 | 55 | 1040.4 |